Regional Weather Roundup
Issued by NWS Sioux Falls, SD

Home | Current Version | Previous Version | Graphics & Text | Print | Product List | Glossary Off
Versions: 1 2 3 4 5 6 7 8 9 10 11 12 13 14 15 16 17 18 19 20 21 22 23 24 25 26 27 28 29 30 31 32 33 34 35 36 37 38 39 40 41 42 43 44 45 46 47 48 49 50

000
ASUS43 KFSD 172210
RWRFSD

WEATHER ROUNDUP FOR SE SOUTH DAKOTA/SW MINNESOTA/NW IOWA
NATIONAL WEATHER SERVICE SIOUX FALLS SD
400 PM CST TUE JAN 17 2017

NOTE: "FAIR" INDICATES FEW OR NO CLOUDS BELOW 12,000 FEET WITH NO
SIGNIFICANT WEATHER AND OR OBSTRUCTIONS TO VISIBILITY.


SDZ038>040-050-052>070-172300-
SOUTHEAST SOUTH DAKOTA

CITY           SKY/WX    TMP DP  RH WIND       PRES   REMARKS
BROOKINGS      CLOUDY    28  21  75 SW5       29.97S WCI  23
CHAMBERLAIN    SUNNY     41  29  61 E5        29.93F
HURON          CLOUDY    30  21  69 SE8       29.95F WCI  22
MADISON          N/A     28  28 100 SW8         N/A  WCI  20
MITCHELL       SUNNY     38  26  62 S7        29.99S
SIOUX FALLS    MOSUNNY   33  24  69 SW5       30.01R WCI  29
WINNER         FAIR      53  20  27 S10       29.92S
YANKTON        SUNNY     36  28  75 CALM      30.02S
$$

MNZ071-072-080-081-089-090-097-098-172300-
SOUTHWEST MINNESOTA

CITY           SKY/WX    TMP DP  RH WIND       PRES   REMARKS
FAIRMONT       FOG       30  30 100 W9        30.01S VSB 3/4 WCI  22
JACKSON        CLEAR     32  28  86 W6        30.00R WCI  26
LUVERNE        SUNNY     30  23  74 SW6       30.01S WCI  24
MARSHALL       CLEAR     28  23  81 W8        29.99S WCI  20
MONTEVIDEO     CLOUDY    27  18  69 SW5       29.99F WCI  21
PIPESTONE      SUNNY     30  25  80 SW8       29.97S WCI  23
REDWOOD FALLS  CLEAR     28  20  71 W3        29.99S
TRACY          CLEAR     31  26  82 SW9       29.98S WCI  23
WINDOM         CLEAR     32  28  86 SW9       29.98S WCI  24
WORTHINGTON    SUNNY     30  26  85 W13       30.00R WCI  20
$$

IAZ001>003-012>014-020>022-031-032-NEZ013-014-SDZ071-172300-
NORTHWEST IOWA

CITY           SKY/WX    TMP DP  RH WIND       PRES   REMARKS
CHEROKEE       CLOUDY    31  31  99 W5        30.04R WCI  26
DENISON        CLOUDY    30  30 100 W6        30.04R FOG     WCI  24
ESTHERVILLE    CLOUDY    30  30 100 W7        30.00S FOG     WCI  23
LE MARS        SUNNY     32  27  80 W5        30.05S WCI  27
ORANGE CITY    SUNNY     30  28  93 W3        30.02S
SHELDON        SUNNY     30  30 100 W10       30.00S WCI  21
SIOUX CITY     SUNNY     35  28  75 W5        30.05S
SPENCER        SUNNY     32  28  85 W10       30.01S WCI  24
STORM LAKE     PTSUNNY   30  28  93 W10       30.03R WCI  21
$$

ABBREVIATIONS USED IN REMARKS
   TC - TEMPERATURE IN CELSIUS
  WCI - WIND CHILL INDEX
   HX - HEAT INDEX
  VSB - VISIBILITY





USA.gov is the U.S. government's official web portal to all federal, state and local government web resources and services.